Vorticity
1 2 2 2 1 2 4 4 7 7 10 6 7 8 4 3 3 8 13 17 16 3 8 11 8 6 5 10 10 5 1 6 9 7 5 8 7 7 12 17 11 4 10 9 4
8 5 3 3 3 2 2 4 6 6 8 8 7 9 5 3 4 9 8 3 2 5 0 9 7 14 7 9 5 -0 7 10 15 14 9 8 8 6 4 9 12 15 14 1 9
8 8 7 5 4 4 3 4 6 8 7 7 9 11 8 5 3 0 -0 2 13 2 0 2 3 9 4 8 8 13 10 10 7 10 12 8 10 7 8 6 7 8 6 8 6
7 8 9 9 6 5 5 6 7 7 7 6 8 10 10 5 8 -0 2 1 10 6 2 1 3 -24 15 4 -10 8 12 8 5 8 11 14 12 9 6 7 7 9 9 7 5
7 7 10 9 8 6 7 8 9 9 6 4 7 8 12 7 4 4 3 3 5 -4 -4 10 6 4 6 10 -10 5 5 8 4 6 6 12 14 14 7 6 7 7 6 6 5
5 5 4 6 7 6 5 6 11 9 5 6 5 5 8 12 14 6 5 4 3 6 6 2 14 -2 5 7 14 -6 5 6 5 5 8 6 12 15 11 6 5 8 5 6 6
5 5 5 5 5 5 5 7 8 6 5 5 5 6 8 8 15 15 8 5 2 1 3 3 15 9 5 2 5 -3 9 5 5 4 6 6 5 16 15 10 6 5 5 6 6
6 6 5 5 5 6 5 7 7 6 4 4 5 6 8 6 7 12 13 6 6 5 4 8 6 6 -3 9 6 6 10 2 7 7 4 -0 7 8 18 16 11 8 5 6 7
8 7 7 6 6 6 6 6 7 6 4 3 4 8 7 6 7 7 14 9 7 7 7 8 13 4 9 3 7 -4 24 -0 -1 6 7 -3 17 7 5 14 15 11 8 7 7
13 12 10 9 8 8 7 7 7 7 5 3 5 8 8 6 6 7 7 9 8 7 6 11 19 -2 1 0 9 0 -3 1 10 11 6 5 7 3 7 3 6 10 13 13 10
13 13 14 15 15 15 12 10 8 8 7 9 10 8 9 7 6 6 6 7 9 11 9 10 7 -3 24 5 3 12 24 26 17 3 8 6 6 7 4 4 6 4 5 4 11
8 9 9 10 13 13 14 15 15 13 12 13 11 12 9 7 7 6 4 6 5 5 2 10 -5 12 25 11 3 2 -6 11 18 -2 3 -2 14 10 7 6 4 5 6 6 3
6 8 8 8 8 7 7 6 9 13 9 10 9 10 10 9 7 7 7 5 6 6 9 17 12 11 22 8 5 5 -4 10 5 11 9 9 8 6 13 9 7 7 9 6 5
6 7 6 7 8 9 7 9 8 6 10 12 14 10 10 9 10 8 7 7 8 6 8 12 13 9 7 8 8 4 27 3 -0 -4 1 12 4 0 1 17 16 14 13 11 13
6 5 7 8 6 6 7 8 7 8 11 9 12 11 12 12 13 11 10 7 8 7 8 4 4 7 7 4 18 9 15 13 8 -14 6 16 12 -2 4 10 16 9 11 10 10
4 7 5 5 7 7 5 5 6 7 4 14 8 8 7 7 9 7 10 12 11 10 6 7 3 4 9 7 10 10 13 13 -1 11 19 10 13 16 9 18 -0 -3 6 6 9
6 5 4 6 5 6 6 7 6 3 4 6 9 8 7 6 7 7 7 7 9 9 8 12 8 4 5 6 7 8 -6 2 7 3 11 -0 24 -1 -3 3 -1 5 6 -2 16
4 4 5 5 4 5 6 6 6 -2 6 4 5 5 2 5 5 5 6 3 4 5 5 5 9 8 7 7 7 0 7 -1 6 -5 -10 11 13 10 12 11 7 6 4 2 7
10 8 6 5 5 6 6 7 5 6 6 6 6 5 5 5 8 6 5 4 4 5 4 6 11 4 6 3 5 6 8 9 0 17 7 12 3 34 1 12 29 7 3 1 7
9 9 11 10 9 8 8 7 3 10 9 7 6 3 5 5 4 4 6 6 6 7 5 4 1 6 5 8 7 5 4 10 5 12 18 17 17 5 -4 2 0 15 13 0 8
10 10 10 10 9 9 10 7 7 9 9 9 8 5 8 3 5 9 8 9 3 -0 1 4 5 11 6 4 8 9 7 5 6 -2 5 9 10 13 8 10 -2 6 6 5 9
10 10 9 9 8 8 8 5 13 8 9 9 9 8 8 7 5 9 9 4 8 10 10 9 5 10 10 15 7 -2 -3 11 7 7 20 9 3 -10 -9 7 14 3 6 1 6
9 10 10 8 9 8 5 8 7 8 7 9 8 10 10 10 10 8 2 5 12 9 6 7 9 11 12 5 17 7 8 4 -4 2 5 -1 2 9 37 26 3 3 17 7 5
9 9 9 7 7 6 8 9 8 8 7 7 7 8 6 5 6 3 5 5 5 4 8 6 6 1 2 6 19 -5 10 9 1 2 8 12 15 14 5 2 1 8 2 4 9
12 14 7 9 9 5 5 5 8 9 9 8 7 8 7 7 7 7 6 5 4 6 6 5 4 4 3 9 -17 -12 -7 -16 -7 -2 -2 4 -5 2 0 -5 3 6 8 6 5
11 9 12 14 10 7 9 8 5 6 7 7 10 9 12 11 7 6 10 9 10 12 9 10 8 9 7 7 6 4 0 3 2 2 2 -4 -3 -0 -2 5 4 4 2 5 10
10 7 11 9 6 10 12 11 5 7 5 7 7 8 7 4 14 14 8 8 8 8 8 8 7 9 11 13 15 12 17 23 17 15 14 14 14 -3 5 5 3 6 3 3 5
Height
5902 5903 5904 5904 5904 5904 5904 5904 5904 5903 5904 5903 5904 5904 5905 5905 5906 5906 5907 5908 5907 5908 5907 5907 5906 5906 5908 5909 5906 5908 5909 5917 5913 5908 5907 5907 5907 5906 5904 5904 5906 5908 5908 5909 5911
5902 5903 5904 5904 5905 5905 5905 5905 5906 5904 5905 5904 5905 5905 5907 5907 5908 5908 5909 5910 5910 5910 5910 5909 5909 5908 5909 5911 5908 5910 5917 5914 5912 5910 5909 5909 5910 5910 5910 5910 5910 5911 5913 5914 5913
5901 5902 5903 5904 5905 5906 5906 5906 5907 5907 5905 5905 5906 5906 5907 5908 5910 5910 5911 5912 5912 5912 5912 5910 5910 5912 5912 5915 5911 5909 5916 5916 5913 5913 5912 5911 5912 5913 5913 5914 5914 5915 5916 5916 5917
5900 5901 5903 5904 5905 5905 5907 5907 5907 5908 5907 5906 5907 5908 5908 5909 5912 5911 5912 5914 5914 5914 5914 5913 5912 5913 5909 5919 5914 5912 5917 5918 5915 5915 5914 5914 5914 5915 5916 5916 5916 5916 5918 5920 5922
5900 5901 5902 5903 5904 5905 5906 5907 5907 5908 5908 5907 5907 5909 5909 5909 5910 5911 5913 5915 5915 5916 5916 5915 5916 5918 5922 5921 5919 5921 5919 5917 5916 5917 5917 5917 5916 5917 5918 5919 5920 5920 5921 5923 5925
5899 5900 5901 5903 5904 5905 5906 5906 5907 5908 5908 5908 5908 5909 5910 5910 5910 5912 5913 5915 5916 5917 5917 5917 5917 5919 5920 5921 5918 5921 5921 5920 5919 5919 5920 5919 5919 5919 5919 5921 5922 5923 5923 5925 5927
5898 5900 5901 5902 5903 5904 5905 5906 5907 5908 5909 5909 5909 5909 5911 5912 5911 5911 5913 5915 5916 5917 5918 5919 5919 5920 5921 5921 5922 5922 5923 5922 5922 5922 5922 5922 5921 5921 5921 5922 5923 5925 5925 5926 5929
5897 5899 5900 5901 5902 5904 5904 5905 5906 5907 5908 5909 5908 5909 5910 5911 5911 5911 5913 5915 5917 5917 5919 5920 5920 5920 5921 5924 5924 5925 5928 5925 5925 5924 5924 5925 5924 5924 5923 5923 5924 5926 5927 5928 5930
5896 5897 5899 5900 5901 5902 5903 5904 5906 5907 5908 5908 5909 5909 5910 5911 5912 5912 5913 5914 5916 5917 5918 5919 5920 5922 5925 5927 5924 5927 5926 5927 5928 5926 5926 5926 5926 5926 5925 5925 5925 5926 5928 5930 5931
5895 5896 5897 5898 5899 5901 5902 5904 5905 5906 5907 5907 5909 5910 5910 5911 5912 5912 5912 5913 5914 5916 5918 5919 5920 5924 5925 5916 5922 5924 5925 5928 5927 5928 5927 5927 5927 5927 5927 5927 5926 5927 5928 5931 5933
5895 5895 5896 5897 5898 5899 5901 5902 5905 5906 5906 5906 5907 5907 5908 5910 5912 5912 5912 5914 5915 5917 5918 5920 5923 5928 5928 5923 5924 5926 5927 5926 5926 5927 5928 5930 5929 5929 5929 5929 5930 5929 5929 5930 5932
5895 5895 5896 5897 5898 5899 5900 5901 5902 5903 5904 5905 5905 5907 5908 5909 5911 5912 5913 5914 5915 5917 5918 5922 5924 5927 5921 5925 5926 5927 5930 5927 5927 5927 5930 5929 5930 5930 5930 5931 5931 5931 5931 5930 5930
5896 5896 5897 5898 5899 5899 5900 5901 5901 5902 5903 5904 5905 5906 5908 5910 5911 5912 5914 5914 5915 5917 5920 5921 5924 5922 5923 5925 5927 5933 5929 5930 5929 5928 5929 5929 5930 5931 5931 5931 5931 5931 5932 5932 5932
5895 5896 5896 5897 5899 5898 5899 5901 5901 5902 5903 5905 5905 5906 5908 5909 5911 5912 5913 5915 5916 5917 5918 5920 5921 5922 5922 5923 5926 5936 5927 5928 5929 5931 5928 5930 5923 5935 5932 5931 5931 5932 5932 5932 5932
5893 5894 5894 5895 5897 5898 5900 5900 5901 5902 5904 5905 5905 5906 5908 5910 5911 5912 5913 5914 5915 5917 5919 5920 5920 5921 5921 5923 5924 5927 5925 5926 5927 5930 5935 5936 5937 5932 5930 5931 5930 5931 5932 5932 5932
5891 5892 5893 5894 5895 5897 5898 5899 5901 5904 5903 5904 5904 5906 5907 5909 5911 5912 5913 5914 5915 5916 5917 5919 5919 5920 5921 5921 5922 5923 5925 5927 5928 5933 5937 5936 5934 5936 5932 5930 5930 5929 5930 5932 5932
5889 5890 5890 5891 5893 5894 5895 5897 5900 5901 5903 5904 5904 5904 5905 5908 5910 5911 5912 5914 5915 5917 5917 5918 5919 5920 5921 5921 5922 5923 5925 5933 5937 5938 5941 5933 5932 5936 5932 5929 5926 5928 5929 5931 5931
5885 5886 5887 5888 5889 5891 5892 5895 5897 5898 5899 5901 5902 5903 5904 5905 5907 5909 5911 5912 5914 5916 5917 5917 5919 5919 5920 5921 5922 5922 5925 5932 5936 5938 5939 5932 5934 5931 5926 5926 5926 5926 5927 5928 5929
5879 5881 5883 5884 5885 5887 5889 5891 5893 5893 5895 5897 5899 5901 5902 5904 5905 5906 5907 5909 5911 5913 5915 5916 5916 5917 5918 5919 5921 5922 5922 5925 5929 5932 5933 5936 5932 5929 5923 5926 5924 5922 5924 5926 5926
5872 5874 5877 5878 5880 5882 5884 5886 5886 5888 5891 5893 5895 5897 5899 5900 5902 5902 5902 5905 5907 5909 5910 5911 5913 5912 5914 5916 5917 5918 5921 5923 5925 5927 5929 5932 5931 5931 5922 5924 5922 5919 5920 5923 5924
5865 5867 5869 5872 5874 5875 5878 5879 5880 5883 5885 5887 5889 5891 5894 5897 5897 5898 5900 5899 5902 5904 5906 5907 5909 5909 5911 5912 5913 5915 5916 5918 5920 5924 5928 5930 5932 5923 5922 5919 5918 5918 5917 5918 5921
5859 5861 5863 5865 5868 5869 5871 5871 5877 5877 5878 5880 5882 5884 5887 5889 5891 5893 5896 5891 5897 5897 5899 5901 5903 5904 5906 5906 5908 5909 5911 5913 5917 5919 5920 5923 5926 5923 5915 5916 5916 5912 5913 5913 5916
5853 5855 5857 5859 5861 5863 5863 5866 5868 5870 5871 5873 5875 5877 5879 5882 5884 5886 5887 5883 5891 5891 5890 5895 5897 5899 5902 5906 5901 5903 5904 5905 5908 5912 5914 5917 5923 5915 5911 5911 5906 5906 5910 5910 5911
5847 5849 5851 5852 5854 5856 5857 5859 5861 5863 5864 5866 5867 5872 5872 5874 5877 5876 5879 5876 5882 5882 5886 5886 5889 5891 5897 5904 5898 5893 5894 5898 5900 5903 5908 5909 5910 5912 5907 5900 5899 5903 5904 5905 5905
5839 5841 5843 5844 5847 5848 5850 5851 5853 5855 5857 5859 5860 5862 5863 5866 5867 5868 5870 5866 5874 5874 5877 5877 5879 5881 5883 5887 5886 5885 5887 5889 5889 5892 5893 5898 5899 5899 5894 5889 5894 5896 5897 5897 5899
5831 5833 5835 5836 5838 5840 5841 5843 5845 5845 5848 5849 5851 5852 5855 5856 5855 5856 5860 5861 5862 5862 5866 5868 5869 5870 5871 5873 5876 5875 5876 5877 5877 5880 5881 5882 5883 5885 5878 5879 5883 5887 5890 5890 5891
5822 5824 5825 5828 5829 5831 5831 5834 5835 5836 5838 5839 5841 5843 5843 5843 5848 5848 5848 5849 5851 5853 5854 5857 5856 5856 5860 5860 5861 5865 5866 5865 5866 5868 5868 5869 5873 5868 5866 5866 5870 5875 5877 5880 5880